Date,TemperatureHighF,TemperatureAvgF,TemperatureLowF,DewpointHighF,DewpointAvgF,DewpointLowF,HumidityHigh,HumidityAvg,HumidityLow,PressureMaxIn,PressureMinIn,WindSpeedMaxMPH,WindSpeedAvgMPH,GustSpeedMaxMPH,PrecipitationSumIn
2013-1-13,24.3,14.7,8.6,1.2,-2.2,-7.3,61,48,26,30.34,30.13,11,5,14,0.00
2013-1-14,33.1,17.7,7.0,9.9,3.4,-2.1,71,55,26,30.46,30.34,4,1,8,0.00
2013-1-15,40.3,24.9,14.0,14.4,9.6,4.7,69,54,28,30.35,30.06,4,1,7,0.00
2013-1-16,53.6,37.6,22.6,33.4,24.6,13.3,77,60,43,30.22,29.93,9,3,12,0.00
2013-1-17,39.0,30.2,22.3,30.1,24.4,18.4,94,80,52,30.46,30.25,5,1,8,0.00
2013-1-18,57.2,38.5,27.0,32.5,28.4,23.6,93,70,36,30.29,29.91,7,2,11,0.00
2013-1-19,56.5,43.0,23.0,34.5,24.4,5.5,90,50,35,30.35,29.88,15,7,32,13.10
2013-1-20,23.0,22.6,22.5,9.0,8.8,8.5,55,55,54,30.36,30.34,5,4,9,0.00
2013-2-9,51.8,49.2,41.0,35.7,35.0,32.6,73,59,54,29.92,29.89,7,2,11,0.21
2013-2-10,48.7,36.7,32.5,44.3,29.4,20.2,99,75,59,29.86,29.40,23,10,37,0.19
2013-2-11,39.0,32.5,24.1,24.2,20.0,16.3,73,60,51,30.24,29.85,14,6,36,0.25
2013-2-12,50.7,38.8,21.2,27.4,20.8,16.7,87,51,28,30.24,30.00,12,2,19,0.25
2013-2-13,57.9,43.6,23.0,29.9,25.0,15.9,81,51,27,30.01,29.83,11,3,20,0.25
2013-2-14,46.4,38.8,26.2,31.2,25.6,8.4,85,61,34,30.34,29.88,11,6,24,0.00
2013-2-15,34.5,24.7,17.2,21.8,14.6,5.3,84,67,32,30.44,30.35,9,2,13,0.00
2013-2-16,33.4,26.8,9.3,22.1,15.7,1.8,81,63,51,30.42,30.16,4,2,9,0.02
2013-2-17,56.7,38.6,25.0,32.9,24.8,16.2,72,59,37,30.11,29.68,6,2,12,0.00
2013-2-18,44.6,29.9,22.3,32.4,18.7,8.6,88,63,46,30.15,29.65,20,9,26,0.01
2013-2-19,29.7,18.3,10.4,10.5,-3.7,-11.6,59,39,19,30.46,30.15,20,7,26,0.00
2013-2-20,26.8,17.1,5.2,3.0,-3.7,-8.9,53,40,25,30.48,30.30,11,4,14,0.00
2013-2-21,26.1,22.7,21.6,19.4,12.3,2.9,86,66,41,30.34,29.95,14,6,21,0.00
2013-2-22,27.1,21.2,10.6,19.4,10.7,2.8,85,64,52,30.13,29.95,11,5,17,0.00
2013-2-23,43.2,23.5,5.0,24.5,11.3,-3.0,75,60,47,30.12,29.97,5,2,9,0.01
2013-2-24,52.2,35.8,17.6,28.0,24.4,11.6,84,64,33,30.17,30.00,7,2,11,0.00
2013-2-25,37.6,31.9,27.5,26.7,24.1,21.3,81,73,59,30.19,30.05,11,4,14,0.00
2013-2-26,33.4,30.4,27.3,28.5,25.2,22.9,87,81,75,30.01,29.88,11,5,14,0.00
2013-2-27,40.5,32.0,26.2,24.6,22.1,17.1,79,67,47,30.17,29.98,16,8,25,0.00
2013-2-28,34.2,29.8,26.8,22.6,20.3,16.1,74,67,60,30.32,30.18,12,6,18,0.00
2013-3-1,32.0,27.8,24.4,18.9,14.9,11.0,70,58,50,30.45,30.31,10,4,21,0.00
2013-3-2,27.5,1.8,0.0,11.4,11.0,11.0,57,4,51,30.44,30.34,4,0,8,0.00
2013-3-3,42.6,36.4,25.9,28.4,24.5,18.1,74,62,54,30.20,29.86,10,4,16,0.00
2013-3-4,46.6,39.7,32.4,29.6,27.4,22.2,75,62,51,30.12,29.80,14,4,20,0.00
2013-3-5,34.7,29.4,25.7,27.9,15.9,12.3,76,57,51,30.46,30.12,22,11,30,0.01
2013-3-6,45.0,34.0,22.1,22.9,18.8,12.2,70,54,37,30.52,30.35,7,2,11,0.01
2013-3-7,27.7,25.7,24.1,18.2,16.4,15.7,70,67,63,30.36,30.34,6,3,9,0.00
2013-3-8,56.5,42.7,31.5,38.7,31.0,23.3,89,64,46,30.28,30.02,8,4,14,0.14
2013-3-9,53.6,49.0,41.4,50.0,46.4,38.9,96,91,83,30.01,29.68,9,2,14,0.09
2013-3-10,36.7,29.8,23.9,34.0,27.1,20.3,94,90,85,30.03,29.77,11,2,17,0.12
2013-3-11,38.1,27.3,19.8,20.0,15.7,12.5,87,62,43,30.10,29.97,10,2,12,0.02
2013-3-12,36.3,28.8,17.1,22.0,17.7,10.2,84,63,53,30.42,30.10,18,6,24,0.01
2013-3-13,26.2,24.6,23.4,15.4,14.5,14.0,68,65,63,30.44,30.41,8,4,11,0.00
2013-3-14,64.0,42.4,31.6,39.4,31.3,20.2,88,67,37,30.33,30.15,6,2,9,0.00
2013-3-15,66.2,47.5,33.6,44.7,38.4,31.2,97,74,41,30.18,29.82,10,2,15,0.00
2013-3-16,40.5,34.0,30.7,38.0,26.0,21.9,92,73,59,30.28,29.94,14,5,26,0.00
2013-3-17,51.1,35.5,24.3,33.5,24.1,16.9,86,64,44,30.25,29.86,8,4,11,0.00
2013-3-18,39.6,35.3,28.8,33.8,19.2,5.3,94,56,26,30.14,29.85,17,7,23,0.20
2013-3-19,53.8,35.4,22.6,24.4,13.3,8.0,58,42,21,30.39,30.15,14,4,24,0.00
2013-3-20,38.8,26.7,16.7,9.5,4.2,-7.0,56,39,20,30.48,30.21,11,4,16,0.00
2013-3-21,25.2,22.8,21.2,10.3,9.7,7.6,62,57,47,30.21,30.13,6,3,9,0.00
2013-3-22,51.1,35.9,24.3,33.5,25.2,16.9,92,66,44,29.81,29.47,8,4,11,0.01
2013-3-23,39.6,34.8,28.8,33.8,17.1,5.3,94,52,26,29.78,29.47,17,7,23,0.19
2013-3-24,53.8,34.8,22.5,24.4,12.9,7.0,58,42,21,30.05,29.78,14,4,24,0.00
2013-3-25,38.8,26.6,16.7,9.6,2.5,-7.0,56,37,20,30.09,29.80,11,5,16,0.00
2013-3-26,25.0,22.7,21.2,10.4,9.9,9.2,62,58,52,29.80,29.74,5,3,8,0.00
2013-3-27,44.6,41.7,39.2,31.1,30.7,29.4,71,65,55,29.96,29.93,3,1,4,0.00
2013-3-28,64.8,49.8,28.4,35.1,30.8,23.7,88,51,26,29.97,29.86,6,2,103,0.00
2013-3-29,74.8,59.3,33.1,41.6,33.1,20.8,98,43,15,29.95,29.77,11,2,14,0.00
2013-3-30,71.1,57.0,46.9,54.5,43.1,28.8,99,64,23,29.81,29.62,11,3,15,0.24
2013-3-31,61.9,53.3,34.9,40.9,26.9,17.8,98,41,19,29.85,29.67,34,7,43,0.05
2013-4-1,45.3,37.1,28.2,34.4,15.1,7.1,98,43,22,30.05,29.85,11,4,17,0.06
2013-4-2,59.7,46.5,22.5,28.5,21.9,15.6,87,41,23,30.05,29.95,7,2,10,0.06
2013-4-3,61.2,47.1,30.7,27.3,25.2,21.6,73,45,23,30.08,29.93,7,2,10,0.00
2013-4-4,69.1,55.5,30.2,40.1,35.3,26.3,87,49,33,29.94,29.76,11,4,14,0.00
2013-4-5,70.0,59.6,34.2,40.8,37.4,30.7,87,46,32,29.89,29.46,9,4,14,0.00
2013-4-6,60.4,58.0,53.4,48.6,42.9,40.3,72,58,49,29.46,29.33,14,4,21,0.00
2013-4-7,78.3,56.8,44.4,55.0,44.6,39.5,90,66,25,29.58,29.37,8,2,10,0.01
2013-4-8,68.5,62.3,47.1,62.1,58.8,46.9,99,88,74,29.45,29.35,4,2,7,0.05
2013-4-9,66.2,41.6,36.1,61.9,40.9,35.4,99,97,86,29.68,29.41,15,7,21,0.27
2013-4-10,39.2,37.2,33.8,38.9,36.8,33.3,99,98,97,29.93,29.52,10,4,21,0.91
2013-4-11,37.4,34.7,31.6,35.6,31.2,29.0,95,87,82,29.82,29.75,14,5,21,0.00
2013-4-12,43.5,38.3,32.2,32.1,30.0,26.1,89,72,59,30.11,29.82,15,6,21,0.01
2013-4-13,57.4,48.5,26.1,41.4,36.5,24.2,93,64,52,30.12,29.81,12,4,16,0.00
2013-4-14,71.2,59.8,50.0,53.4,43.6,33.8,75,56,40,29.77,29.45,18,6,27,0.08
2013-4-15,49.6,42.4,36.5,34.6,29.9,23.0,77,61,51,30.17,29.77,12,5,18,0.08
2013-4-16,55.6,47.4,36.5,36.9,31.9,25.2,78,56,34,30.33,30.17,15,6,20,0.08
2013-4-17,47.5,42.7,41.0,44.0,42.3,36.7,99,98,66,30.24,29.71,24,5,28,0.97
2013-4-18,37.9,34.6,32.7,37.7,31.5,28.2,99,88,77,30.00,29.78,19,9,28,0.43
2013-4-19,50.5,40.9,30.2,27.8,22.3,17.9,78,49,29,30.20,29.94,17,8,24,0.00
2013-4-20,50.4,43.2,25.3,31.5,23.7,17.3,83,48,32,30.35,30.20,10,3,15,0.00
2013-4-21,70.7,58.2,45.1,52.8,47.2,31.3,98,72,33,30.24,30.09,17,3,24,0.52
2013-4-22,55.2,45.4,34.2,54.4,44.9,32.4,99,98,94,30.26,30.04,15,4,24,1.50
2013-4-23,43.7,36.6,30.0,30.8,25.0,21.2,88,63,49,30.33,30.23,15,4,21,0.01
2013-4-24,63.5,48.1,25.0,42.2,27.7,18.3,87,51,18,30.29,30.12,17,5,24,0.00
2013-4-25,74.8,62.4,32.7,40.2,32.9,25.8,99,37,17,30.35,30.12,11,3,18,0.00
2013-4-26,75.6,60.5,50.7,53.3,46.5,39.6,93,61,42,30.29,30.12,7,2,10,0.00
2013-4-27,73.4,57.5,44.8,53.4,49.7,44.0,99,78,46,30.30,30.04,4,1,5,0.00
2013-4-28,85.8,65.8,46.4,56.7,51.5,46.1,99,66,30,30.05,29.80,5,2,11,0.00
2013-4-29,90.0,75.6,57.6,61.8,57.1,50.8,97,56,28,29.85,29.68,7,2,9,0.00
2013-4-30,79.9,71.5,60.8,59.0,53.2,46.4,64,53,42,29.97,29.61,12,4,16,0.02
2013-5-1,60.3,39.6,34.3,49.7,37.2,33.8,99,92,64,30.47,29.99,14,8,24,0.81
2013-5-2,51.1,44.5,34.9,35.0,31.8,27.3,98,62,48,30.60,30.45,17,6,24,1.18
2013-5-3,46.4,42.8,34.2,36.5,32.0,27.3,85,66,56,30.37,30.13,13,6,19,0.00
2013-5-4,45.3,42.9,37.9,43.8,41.8,35.3,99,96,85,30.22,30.09,12,5,17,0.04
2013-5-5,56.1,52.6,43.3,51.2,49.2,42.8,98,88,82,30.26,30.19,8,3,10,0.04
2013-5-6,72.9,58.1,48.7,56.9,52.1,48.5,99,82,53,30.25,30.13,7,2,11,0.04
2013-5-7,79.9,70.4,50.4,58.9,54.7,49.9,99,59,40,30.18,30.04,8,2,11,0.00
2013-5-8,73.6,67.3,58.3,62.0,59.3,56.3,96,76,61,30.07,29.99,6,2,10,0.00
2013-5-9,74.1,62.7,56.7,61.8,58.7,56.3,99,88,56,30.08,29.95,11,4,17,0.65
2013-5-10,76.3,62.6,51.4,58.4,49.6,45.0,97,66,36,30.19,30.08,11,3,13,0.65
2013-5-11,65.3,58.8,42.8,48.5,24.3,17.7,89,28,18,30.34,30.14,19,6,27,0.00
2013-5-12,72.9,64.0,42.6,32.5,24.4,14.9,58,23,12,30.36,30.20,6,2,9,0.00
2013-5-13,86.4,74.0,47.3,52.9,46.7,30.1,76,40,24,30.20,29.95,7,2,19,0.00
2013-5-14,102.2,90.4,68.7,64.2,53.9,40.6,85,33,13,29.96,29.74,8,2,14,0.00
2013-5-15,87.4,78.2,65.1,59.9,45.1,35.1,64,32,22,30.03,29.88,14,6,20,0.00
2013-5-16,89.6,79.5,63.7,68.7,62.7,47.3,76,58,41,29.98,29.86,7,2,11,0.00
2013-5-17,92.3,80.4,65.1,66.8,63.2,60.0,91,58,36,30.01,29.92,7,2,11,0.00
2013-5-18,89.6,81.5,63.3,70.0,66.5,61.3,94,62,44,30.00,29.80,9,3,17,0.00
2013-5-19,82.0,67.5,61.5,71.0,64.1,57.8,99,90,63,29.94,29.58,11,2,23,0.60
2013-5-20,81.3,72.9,59.7,61.7,57.2,51.1,94,59,43,29.77,29.66,11,3,18,0.61
2013-5-21,68.2,61.7,55.9,59.4,52.5,47.8,92,73,56,29.83,29.70,14,5,21,0.00
2013-5-22,64.2,58.5,53.6,56.3,52.0,50.1,92,79,66,30.06,29.83,13,6,20,0.00
2013-5-23,78.1,67.2,52.9,55.3,49.2,42.0,98,57,29,30.29,30.06,12,4,17,0.00
2013-5-24,78.1,69.9,57.4,54.6,51.2,47.4,74,52,40,30.39,30.13,10,3,17,0.00
2013-5-25,84.2,74.2,60.4,71.6,67.3,49.7,99,80,56,30.22,30.06,13,4,17,0.26
2013-5-26,90.3,77.8,66.6,73.9,70.0,64.2,92,78,55,30.12,29.94,11,4,17,0.26
2013-5-27,81.9,69.3,60.1,69.1,64.5,59.8,99,86,62,30.01,29.79,17,4,26,1.34
2013-5-28,86.0,76.2,64.0,69.0,66.4,61.4,99,73,46,29.84,29.75,11,2,13,1.38
2013-5-29,78.1,70.1,64.0,75.3,67.9,62.7,99,93,83,29.85,29.66,8,2,16,0.64
2013-5-30,80.4,69.1,61.9,67.1,63.5,57.0,99,83,62,29.73,29.63,8,2,16,0.32
2013-5-31,83.1,75.1,61.5,58.1,52.3,44.8,85,46,28,29.82,29.72,8,3,17,0.32
2013-6-1,66.0,60.1,56.7,58.0,53.8,48.2,97,80,55,30.11,29.81,15,7,23,0.01
2013-6-2,77.7,67.9,55.0,52.3,49.0,45.4,82,53,36,30.16,30.10,12,2,18,0.01
2013-6-3,80.1,71.1,55.0,56.8,53.1,48.7,86,54,36,30.13,29.94,11,3,18,0.01
2013-6-4,73.9,68.0,58.5,68.0,64.6,57.0,99,89,74,30.08,29.98,11,3,17,0.29
2013-6-5,81.0,68.2,57.4,65.6,53.7,48.6,99,62,35,30.14,30.05,10,3,14,0.02
2013-6-6,76.1,69.4,53.4,59.9,54.7,49.8,97,61,43,30.10,30.04,11,3,13,0.00
2013-6-7,79.5,69.7,59.2,57.9,53.7,49.4,89,58,36,30.15,30.00,7,2,10,0.00
2013-6-8,64.2,61.5,60.4,63.0,55.8,52.5,97,82,75,30.01,29.81,4,1,8,0.81
2013-6-9,72.1,65.4,61.9,65.8,61.8,59.8,98,88,72,29.93,29.83,14,5,21,0.21
2013-6-10,84.2,73.0,59.4,70.0,65.1,59.1,99,78,57,30.01,29.88,9,2,14,0.21
2013-6-11,95.5,81.6,70.5,75.7,70.9,64.7,91,72,43,29.93,29.81,7,2,11,0.21
2013-6-12,91.8,82.7,67.3,74.8,67.5,56.9,79,61,45,30.11,29.81,17,6,27,0.21
2013-6-13,82.9,73.5,62.6,66.0,60.3,54.6,97,65,41,30.20,30.06,7,2,9,0.01
2013-6-14,91.2,77.0,62.6,73.9,68.7,61.8,99,77,54,30.14,29.89,17,4,24,0.89
2013-6-15,88.2,77.1,66.2,73.3,68.8,63.4,99,77,48,30.06,29.94,9,2,14,0.02
2013-6-16,93.6,84.2,72.9,73.7,66.1,57.7,89,56,36,30.09,30.03,8,2,11,0.00
2013-6-17,95.4,85.7,70.7,68.6,61.1,55.0,89,45,31,30.12,30.04,9,2,12,0.00
2013-6-18,92.8,77.1,64.0,69.2,63.0,52.5,99,67,30,30.18,30.07,5,1,9,0.25
2013-6-19,91.9,83.2,66.7,71.0,66.8,61.8,87,59,43,30.12,30.00,7,2,14,0.25
2013-6-20,94.5,86.4,72.1,76.6,73.5,69.1,91,66,49,30.03,29.92,11,3,19,0.25
2013-6-21,98.1,89.8,80.1,78.7,74.5,72.3,82,62,46,29.98,29.89,8,3,16,0.00
2013-6-22,95.9,88.4,81.1,75.6,70.1,66.5,74,55,46,29.95,29.90,7,2,11,0.00
2013-6-23,87.3,76.6,66.0,74.7,70.9,65.7,99,83,61,30.02,29.87,8,2,12,0.48
2013-6-24,87.1,77.9,65.3,77.3,72.8,65.0,99,85,66,30.13,29.81,17,2,29,0.31
2013-6-25,90.1,83.4,70.2,78.7,73.7,65.3,98,73,56,29.93,29.78,8,2,12,0.00
2013-6-26,99.1,85.9,72.1,76.3,68.3,61.5,99,59,32,30.00,29.77,11,3,15,0.00
2013-6-27,94.1,75.3,68.0,75.3,70.1,65.5,99,86,48,30.11,29.99,7,1,10,0.17
2013-6-28,90.0,79.8,66.4,69.2,61.3,53.8,99,57,33,30.08,29.99,17,4,22,0.00
2013-6-29,84.9,75.0,67.3,64.1,58.9,55.6,79,58,43,30.05,29.99,15,4,23,0.00
2013-6-30,84.2,71.3,61.0,63.9,57.8,52.5,94,66,38,30.21,30.05,11,2,14,0.00
2013-7-1,90.0,74.3,59.2,60.4,56.5,53.4,89,57,30,30.29,30.20,9,2,13,0.00
2013-7-2,87.6,77.0,59.4,63.3,58.1,53.8,92,54,35,30.26,30.15,10,2,14,0.00
2013-7-3,87.3,79.3,63.3,67.6,61.5,55.2,99,56,36,30.17,30.06,5,1,8,0.00
2013-7-4,91.4,81.2,65.8,64.4,60.6,56.9,81,52,34,30.09,30.00,8,2,12,0.00
2013-7-5,89.2,78.4,67.3,69.0,64.2,59.2,80,63,48,30.03,29.94,4,2,8,0.00
2013-7-6,93.0,83.8,70.2,72.2,69.0,64.3,82,63,47,29.98,29.92,8,2,13,0.00
2013-7-7,99.0,90.8,74.7,75.6,70.7,67.8,83,53,40,30.00,29.92,7,2,11,0.00
2013-7-8,93.0,84.1,77.9,78.3,75.8,70.8,84,77,55,30.07,30.00,4,2,8,0.00
2013-7-9,104.4,89.8,77.4,79.5,76.3,71.8,88,66,45,30.05,29.98,6,2,9,0.00
2013-7-10,83.8,78.0,75.4,75.9,72.3,70.6,85,83,77,30.14,30.03,4,2,8,0.00
2013-7-11,91.8,82.0,64.2,66.7,64.4,59.9,95,57,42,30.20,30.07,8,2,14,0.00
2013-7-12,95.0,81.3,67.8,72.8,67.8,61.8,84,64,49,30.11,30.02,7,3,14,0.00
2013-7-13,90.0,83.1,73.9,77.6,72.1,63.7,79,70,62,30.09,30.03,9,3,14,0.00
2013-7-14,91.8,85.5,72.5,70.6,64.9,61.3,81,51,41,30.24,30.08,11,3,18,0.00
2013-7-15,93.4,85.5,72.5,74.6,71.4,66.4,84,63,49,30.30,30.21,8,2,12,0.00
2013-7-16,95.9,88.5,77.5,73.2,69.9,64.3,84,55,44,30.36,30.25,8,1,10,0.00
2013-7-17,97.5,90.1,79.3,74.8,72.6,69.3,82,58,44,30.40,30.26,6,2,8,0.00
2013-7-18,87.6,81.9,74.1,74.5,72.9,71.3,92,75,64,30.26,30.22,3,1,5,0.00
2013-7-19,100.6,86.4,76.1,73.7,68.3,61.5,77,57,28,30.05,29.98,4,1,8,0.01
2013-7-20,94.5,81.2,67.3,68.3,64.6,61.0,86,59,37,30.10,29.96,5,2,9,0.00
2013-7-21,73.8,73.5,73.2,70.3,68.9,66.5,89,86,78,30.02,29.98,1,0,2,0.00
2013-7-22,81.0,79.7,78.6,66.7,66.7,66.7,67,65,62,29.95,29.94,5,5,7,0.00
2013-7-23,88.2,78.0,67.1,69.5,66.3,63.2,99,69,48,30.13,29.93,11,4,17,0.04
2013-7-24,90.1,80.5,67.3,66.8,63.6,60.3,96,58,41,30.19,30.05,8,2,12,0.04
2013-7-25,85.1,78.2,70.2,71.7,67.6,62.5,94,70,54,30.15,30.08,7,2,10,0.01
2013-7-26,83.8,75.7,62.8,70.1,58.3,50.8,98,56,37,30.21,30.11,14,4,21,0.02
2013-7-27,81.0,72.8,59.7,56.0,48.8,45.1,81,44,32,30.21,30.10,11,3,17,0.00
2013-7-28,85.5,67.7,49.8,58.4,51.9,44.1,99,61,27,30.17,30.10,6,2,9,0.00
2013-7-29,68.7,65.2,59.5,66.2,63.2,53.5,99,93,72,30.17,30.10,8,2,12,0.08
2013-7-30,65.8,65.7,65.7,65.4,65.4,65.4,99,99,99,30.15,30.14,2,2,4,0.08
2013-7-31,90.5,80.6,63.3,72.1,67.5,62.5,99,67,45,30.24,30.14,4,1,8,0.00
2013-8-1,71.1,71.1,71.1,68.3,68.3,68.3,91,91,91,30.17,30.17,0,0,0,0.00
2013-8-2,88.9,77.3,67.3,72.2,68.1,63.2,99,74,53,30.12,29.94,12,4,17,0.00
2013-8-3,84.6,76.6,67.8,64.3,61.3,58.8,86,60,48,30.27,30.12,8,3,11,0.00
2013-8-4,85.3,76.6,61.9,69.5,64.0,57.8,88,66,51,30.27,30.13,9,3,14,0.00
2013-8-5,70.5,69.7,68.7,69.4,68.7,68.1,99,97,93,30.12,30.08,2,1,3,0.00
2013-8-6,93.2,80.1,70.7,76.4,73.6,66.8,99,82,51,30.03,29.90,6,1,9,0.00
2013-8-7,91.8,83.3,72.9,76.4,64.9,58.8,89,56,37,30.08,29.95,11,3,14,0.00
2013-9-16,89.6,79.8,67.6,65.1,58.7,54.3,72,50,34,30.05,29.95,13,5,19,0.00
2013-9-17,83.7,73.3,61.2,62.4,59.5,56.0,94,64,45,30.08,29.95,10,4,17,0.00
2013-9-18,83.5,70.9,59.2,63.0,56.8,53.0,88,64,39,30.22,30.08,6,2,13,0.00
2013-9-19,89.8,74.2,59.4,59.7,56.9,53.5,92,59,30,30.25,30.16,7,2,11,0.00
2013-9-20,86.9,72.7,58.6,63.3,58.9,55.5,99,66,38,30.22,30.10,8,1,9,0.00
2013-9-21,86.7,75.3,61.2,66.2,60.4,56.6,99,63,37,30.13,30.02,4,1,6,0.00
2013-9-22,90.5,77.9,64.0,63.6,56.3,52.3,76,50,34,30.06,29.87,8,3,18,1.70
2013-9-23,83.3,71.4,55.4,58.1,54.4,49.2,93,57,34,29.92,29.79,10,4,21,0.00
2013-9-24,76.3,68.9,61.7,62.9,60.3,52.4,89,74,57,29.95,29.82,11,3,15,0.00
2013-9-26,91.0,74.4,61.9,64.2,62.1,59.4,98,69,37,29.89,29.81,8,4,16,0.00
2013-9-27,93.2,78.2,70.2,64.6,63.1,60.2,81,62,35,29.91,29.83,7,3,13,0.00
2013-9-28,74.5,64.7,50.0,66.8,54.6,42.4,99,73,35,30.11,29.74,11,4,14,0.00
2013-9-29,82.9,62.0,45.9,53.9,46.7,38.8,99,65,22,30.11,29.94,7,1,11,0.00
2013-9-30,87.1,67.1,52.9,55.4,52.5,49.9,94,64,29,29.96,29.77,4,2,10,0.00
2013-10-1,89.6,68.3,54.9,58.2,54.7,52.2,99,66,28,30.01,29.84,5,1,7,0.00
2013-10-2,90.7,72.4,59.0,68.8,63.4,53.2,99,76,41,30.02,29.88,4,1,8,0.00
2013-10-3,65.1,63.0,61.3,64.9,62.4,60.8,99,98,97,29.91,29.79,21,12,29,0.00
2013-10-4,87.6,71.2,56.1,75.9,64.0,43.3,99,79,56,29.95,29.70,14,6,29,0.00
2013-10-5,56.1,48.9,43.5,44.5,36.8,34.6,89,64,49,29.98,29.86,14,6,24,0.00
2013-10-6,50.9,48.9,43.5,49.8,48.1,39.9,99,97,87,30.03,29.86,13,4,19,0.00
2013-10-7,81.0,57.8,39.6,48.6,44.5,35.1,99,65,22,30.12,30.03,6,1,9,0.00
2013-10-8,65.8,63.5,54.9,49.7,49.2,45.6,71,60,56,30.06,29.99,5,2,11,0.00
2013-10-9,83.8,66.0,54.1,55.5,52.2,49.3,87,63,37,30.06,29.99,6,2,12,0.00
2013-10-15,57.4,50.1,46.9,57.1,43.6,39.3,99,79,67,30.10,29.85,15,7,25,0.00
2013-10-16,65.7,49.0,40.3,43.7,39.5,22.9,94,73,23,30.11,30.00,7,4,11,0.00
2013-10-17,63.9,47.4,34.7,44.2,39.9,34.2,99,78,46,30.09,29.93,12,4,17,0.00
2013-10-18,54.5,43.6,37.4,40.6,34.8,29.6,91,73,40,30.17,30.05,7,2,10,0.00
2013-10-19,65.5,46.3,32.0,42.4,35.3,29.4,96,70,33,30.04,29.86,13,2,17,0.00
2013-10-20,69.3,52.9,43.2,45.0,41.6,38.0,93,68,36,30.06,29.76,10,3,14,0.00
2013-10-21,56.5,43.7,32.7,42.5,36.5,31.5,99,78,47,30.14,30.01,6,2,8,0.00
2013-10-22,51.1,45.4,38.5,45.5,40.5,37.2,99,83,71,30.11,29.90,11,2,14,0.00